ONEWEB-0636, 56077

Orbit data source: Space-Track

ONEWEB-0636, 56077 is a payload satellite owned by One Web (NAA) (UK) in LEO that was launched on Sun, 26 Mar 2023 UTC via a LVM3 launch vehicle from the Sirharikota (SRI). Payloads include a variety of satellites, spacecraft, and rockets equipped with specific instruments for various scientific and technological missions. These include communications satellites like Starlink; space stations such as the ISS; scientific satellites like the Hubble; Earth observation satellites from companies like Planet Labs, Umbra, and HawkEye 360; GPS; miniature CubeSats for education and research; and military/defense satellites.

Loading next visibility...
ONEWEB-0636 details
Identifier
56077, 2023-043AH
Orbit
LEO
Last TLE update17 hours ago
Origin
Flag of UKOne Web (NAA) (UK)
ManufacturerOne Web
MissionOperational Commercial Communications
Bus & MotorARROW, Unknown motor
Mass148 kg wet, ~140 kg dry
Launch date (UTC)
2023-03-26 (2 years ago)
Launch vehicle
LVM3
Launch site
Sirharikota (SRI)
Object type
Payload
Rocket body
Debris
Shape & HBRTrap Box + 2 Pan, 5 m
Radar Cross Section2.032 m², Medium (>0.1 m² and < 1m²)

Expand to show TLE details & history

TLE from 17 hours ago
0 ONEWEB-0636
1 56077U 23043AH  25014.88159019  .00000100  00000-0  23274-3 0  9992
2 56077  87.9078   2.4404 0001578  78.9011 281.2297 13.15548033 88265
Epoch: 2025-01-14T21:09Z
Definitive object data (Epoch: 2025-01-14T21:09:29.392Z)
Latitude0.00001°
Longitude-69.51399°
Altitude1,204.435 km
Speed7.252 km/s
True Right ascension00h 09m 45s
True Declination0° 00' 00"
Sunlit
Object was in daylight at TLE epoch
Visualization TLE readout
Latitude-29.38587°
Longitude111.51423°
Altitude1,213.556 km
Speed7.246 km/s
Apparent Right ascension09h 03m 32s
Apparent Declination-58° 17' 13"
Sunlit
Object is in daylight
Visualization observer readout
Local Sidereal Time15:19:30
Azimuth219.818° SW
Elevation-35.025°
Doppler factor1
Orbital elements
Apogee altitude1,200.08 km
Perigee altitude1,197.689 km
Semi-major axis7,577.022 km
Eccentricity0.0001578
Inclination87.9078°
RAAN2.4404°
Arg. of periapsis78.9011°
True anomaly281.21196°
Mean anomaly281.2297°
Eccentric anomaly281.22083°
Mean motion3.29075 °/min
BSTAR0.00023274
Orbital period109.4 mins
Loading maneuver chart data...
Loading historical data...
Loading historical data...
Loading historical data...
Loading historical data...
Loading historical data...
Loading historical data...
Loading historical data...

ONEWEB-0636 Visibility forecast

Observer location: undefined°, undefined

Span
Click to sort rows by Start time (UTC) header in descending order
Start Az.
Max El. time (UTC)
Max El. Az.
Max El.
End time (UTC)
End Az.
13 mins2025-01-15 22:48:47.029Z153.42° SSE2025-01-15 22:54:47.029Z90.387° ESE37.03°2025-01-15 23:01:47.029Z12.004° NNE
11 mins2025-01-16 00:39:47.029Z228.814° WSW2025-01-16 00:44:47.029Z280.447° WNW25.996°2025-01-16 00:50:47.029Z338.452° N
12 mins2025-01-16 10:16:47.029Z20.134° NNE2025-01-16 10:22:47.029Z90.535° ESE31.28°2025-01-16 10:28:47.029Z147.322° SSE
11 mins2025-01-16 12:06:47.029Z336.959° NNW2025-01-16 12:11:47.029Z278.793° WNW31.627°2025-01-16 12:17:47.029Z216.831° SW
|